EA1GLE Weather Reports


time (UTC)temp
F
wind
direction
speed
knots
gust
knots
rain 1hr
in
rain 24hr
in
rain mn
in
humidity
%
barometer
mb
20260504000003 48 0 0.0 0.0 0.00 0.38 0.00 99 1014.7
20260503234503 47 47 0.9 2.6 0.00 0.38 0.00 99 1014.8
20260503233603 47 47 1.7 2.6 0.00 0.38 0.00 99 1014.8
20260503232703 47 61 0.9 2.6 0.00 0.38 0.00 99 1014.6
20260503231803 47 63 0.9 1.7 0.00 0.38 0.00 99 1014.9
20260503230903 46 63 0.9 2.6 0.00 0.38 0.00 99 1014.7
20260503225403 47 0 0.0 0.0 0.00 0.38 0.00 99 1014.6
20260503224503 47 48 0.9 2.6 0.00 0.38 0.00 99 1014.8
20260503223817 47 47 1.7 2.6 0.00 0.38 0.00 99 1014.9
20260503222918 47 46 0.9 1.7 0.00 0.38 0.00 99 1014.7
20260503221803 48 44 0.0 0.9 0.00 0.38 0.00 99 1014.9
20260503220903 49 36 0.9 1.7 0.00 0.38 0.00 99 1015.0
20260503220003 49 31 0.0 1.7 0.00 0.38 0.00 99 1014.7
20260503215618 49 0 0.0 0.0 0.00 0.38 0.38 99 1014.9
20260503214503 49 51 0.9 2.6 0.00 0.38 0.38 99 1014.9
20260503213603 49 50 0.0 1.7 0.00 0.38 0.38 99 1014.9
20260503212703 49 0 0.0 0.0 0.00 0.38 0.38 99 1015.0
20260503210903 50 0 0.0 0.0 0.00 0.38 0.38 99 1014.7
20260503204503 50 56 0.9 1.7 0.00 0.38 0.38 99 1014.4
20260503203603 50 51 0.0 2.6 0.00 0.38 0.38 99 1014.5
20260503202703 50 71 0.0 0.9 0.00 0.38 0.38 99 1014.4
20260503202017 50 0 0.0 0.0 0.00 0.38 0.38 99 1014.0
20260503200903 51 31 0.9 2.6 0.01 0.38 0.38 99 1013.8
20260503200003 51 70 0.0 0.9 0.01 0.38 0.38 98 1013.9
20260503195403 51 48 0.9 3.5 0.01 0.38 0.38 98 1013.8
20260503194503 52 43 2.6 5.2 0.01 0.38 0.38 98 1013.7
20260503193603 52 58 1.7 5.2 0.07 0.38 0.38 98 1013.7
20260503192703 52 63 0.0 1.7 0.13 0.38 0.38 97 1013.6
20260503192017 52 61 0.9 3.5 0.13 0.38 0.38 97 1013.8
20260503190903 52 81 0.0 1.7 0.12 0.37 0.37 96 1013.7
20260503190003 52 97 0.0 1.7 0.13 0.37 0.37 94 1013.4
20260503185403 52 128 0.0 2.6 0.13 0.37 0.37 93 1013.4
20260503184503 52 169 1.7 3.5 0.13 0.37 0.37 91 1013.5
20260503182704 56 167 0.9 2.6 0.02 0.25 0.25 89 1013.4
20260503180903 56 158 0.9 2.6 0.02 0.27 0.25 88 1013.2
20260503180217 57 113 0.0 1.7 0.01 0.26 0.24 88 1013.1
20260503175403 56 135 0.9 2.6 0.01 0.26 0.24 88 1013.1
20260503174503 57 140 1.7 5.2 0.01 0.26 0.24 87 1013.0
20260503173603 57 133 1.7 2.6 0.00 0.25 0.23 83 1013.1
20260503172703 58 118 0.9 2.6 0.00 0.25 0.23 85 1013.0
20260503171803 58 99 0.9 6.1 0.00 0.25 0.23 87 1012.9
20260503171117 57 78 0.9 6.1 0.00 0.25 0.23 87 1013.1
20260503150903 59 190 4.3 7.8 0.00 0.32 0.13 74 1013.3
20260503131118 60 253 3.5 5.2 0.00 0.33 0.13 72 1014.0
20260503072703 52 0 0.0 0.0 0.00 0.65 0.00 99 1015.5
20260503071803 52 0 0.0 0.0 0.00 0.65 0.00 99 1015.5
20260503060217 47 0 0.0 0.0 0.00 0.65 0.00 99 1015.8
20260503054504 48 0 0.0 0.0 0.00 0.65 0.00 99 1015.8
20260503053603 47 50 0.0 1.7 0.00 0.65 0.00 99 1015.8
20260503051803 47 0 0.0 0.0 0.00 0.65 0.00 99 1015.8
20260503050903 48 30 0.0 0.9 0.00 0.65 0.00 99 1015.8
20260503050004 48 0 0.0 0.0 0.00 0.65 0.00 99 1015.6
20260503045403 48 0 0.0 0.0 0.00 0.65 0.00 99 1015.6
20260503044504 48 0 0.0 0.0 0.00 0.65 0.00 99 1015.6
20260503042703 49 0 0.0 0.0 0.00 0.65 0.00 99 1015.9
20260503041803 49 0 0.0 0.0 0.00 0.65 0.00 99 1015.9
20260503041117 49 0 0.0 0.0 0.00 0.65 0.00 99 1015.9
20260503040003 49 0 0.0 0.0 0.00 0.65 0.00 99 1015.6
20260503035618 49 0 0.0 0.0 0.00 0.65 0.00 99 1015.9
20260503034503 49 0 0.0 0.0 0.00 0.65 0.00 99 1015.8
20260503032918 49 0 0.0 0.0 0.00 0.65 0.00 99 1016.0
20260503031803 49 0 0.0 0.0 0.00 0.65 0.00 99 1016.0
20260503030903 49 0 0.0 0.0 0.00 0.65 0.00 99 1015.9
20260503030003 48 0 0.0 0.0 0.00 0.65 0.00 99 1016.0
20260503025403 49 0 0.0 0.0 0.00 0.65 0.00 99 1016.0
20260503023603 48 0 0.0 0.0 0.00 0.65 0.00 99 1015.8
20260503022703 48 95 0.0 0.9 0.00 0.65 0.00 99 1016.1
20260503021803 49 61 0.0 1.7 0.00 0.65 0.00 99 1016.1
20260503020903 49 48 0.0 1.7 0.00 0.65 0.00 99 1016.1
20260503020003 49 53 0.0 1.7 0.00 0.65 0.00 99 1016.3
20260503013603 50 0 0.0 0.0 0.00 0.65 0.00 99 1016.2
20260503012703 49 0 0.0 0.0 0.00 0.65 0.00 99 1016.5
20260503011803 49 37 0.0 1.7 0.00 0.65 0.00 99 1016.3
20260503010903 49 345 0.0 0.9 0.00 0.65 0.00 99 1016.6
20260503010003 49 43 0.0 1.7 0.00 0.65 0.00 99 1016.5
20260503004503 49 0 0.0 0.0 0.00 0.65 0.00 99 1016.7
20260503003603 49 55 0.0 1.7 0.00 0.65 0.00 99 1016.8
20260503002703 49 268 0.0 1.7 0.00 0.65 0.00 99 1016.9
20260503002018 49 42 0.0 0.9 0.00 0.65 0.00 99 1016.7
20260503001118 49 0 0.0 0.0 0.00 0.65 0.00 99 1016.9